Weather History for TNCB - April, 2013

Change the Weather History Date:

Saturday, April 27, 2013

  Actual Average Record
Temperature  
Mean Temperature 82 °F -  
Max Temperature 87 °F 86 °F 91 °F (2005)
Min Temperature 78 °F 80 °F 78 °F (2001)
Cooling Degree Days 18    
Growing Degree Days 32 (Base 50)    
Moisture  
Dew Point 73 °F    
Average Humidity 75    
Maximum Humidity 83    
Minimum Humidity 54    
Precipitation  
Precipitation 0.00 in - - ()
Sea Level Pressure  
Sea Level Pressure 29.92 in    
Wind  
Wind Speed 8 mph ()    
Max Wind Speed 16 mph    
Max Gust Speed -    
Averages and records for this station are not official NWS values.
T = Trace of Precipitation, MM = Missing Value Source: Averaged Metar Reports

Daily Weather History Graph

Daily Weather History Graph

Search for Another Location

Airport or City:

Trip Planner

Search our weather history database for the weather conditions in past years. The results will help you decide how hot, cold, wet, or windy it might be!

Date:

Astronomy

Apr. 27, 2013 Rise Set
Actual Time 6:14 AM AST 6:46 PM AST
Civil Twilight 5:53 AM AST 7:08 PM AST
Nautical Twilight 5:27 AM AST 7:34 PM AST
Astronomical Twilight 5:01 AM AST 8:00 PM AST
Moon 8:54 PM AST (4/27) 7:45 AM AST (4/27)
Length of Visible Light 13h 15m
Length of Day
12h 31m
Waning Gibbous, 95% of the Moon is Illuminated
Apr 27
Waning Gibbous
May 2
Last Quarter
May 9
New
May 18
First Quarter
May 25
Full

Hourly Weather History & Observations

Time (AST) Temp. Heat Index Dew Point Humidity Pressure Visibility Wind Dir Wind Speed Gust Speed Precip Events Conditions
12:00 AM 80.6 °F 85.4 °F 73.4 °F 79% 29.98 in - ENE 6.9 mph - N/A   Unknown
1:00 AM 78.8 °F - 73.4 °F 83% 29.95 in - ENE 6.9 mph - N/A   Unknown
2:00 AM 79 °F - 73 °F 77%  in - ENE 5.8 mph - -   Clear
2:00 AM 78.8 °F - 73.4 °F 83% 29.92 in - ENE 5.8 mph - N/A   Unknown
3:00 AM 78.8 °F - 73.4 °F 83% 29.92 in - ENE 6.9 mph - N/A   Unknown
4:00 AM 78.8 °F - 73.4 °F 83% 29.89 in - NE 4.6 mph - N/A   Unknown
5:00 AM 79 °F - 74 °F 79%  in - ENE 6.9 mph - -   Clear
5:00 AM 78.8 °F - 73.4 °F 83% 29.89 in - ENE 6.9 mph - N/A   Unknown
6:00 AM 78.8 °F - 73.4 °F 83% 29.92 in - ENE 6.9 mph - N/A   Unknown
7:00 AM 80.6 °F 85.4 °F 73.4 °F 79% 29.92 in - East 6.9 mph - N/A   Unknown
8:00 AM 83 °F - 74 °F 69%  in - ENE 11.5 mph - -   Clear
8:00 AM 84.2 °F 92.3 °F 75.2 °F 74% 29.95 in - ENE 11.5 mph - N/A   Unknown
9:00 AM 84.2 °F 90.9 °F 73.4 °F 70% 29.95 in - NE 12.7 mph - N/A   Unknown
10:00 AM 84.2 °F 90.9 °F 73.4 °F 70% 29.95 in - ENE 11.5 mph - N/A   Unknown
11:00 AM 87 °F - 73 °F 54%  in - East 11.5 mph - -   Clear
11:00 AM 87.8 °F 95.6 °F 73.4 °F 62% 29.95 in - East 11.5 mph - N/A   Unknown
12:00 PM 86.0 °F 93.4 °F 73.4 °F 66% 29.95 in - ENE 13.8 mph - N/A   Unknown
1:00 PM 86.0 °F 93.4 °F 73.4 °F 66% 29.92 in - ENE 15.0 mph - N/A   Unknown
2:00 PM 86.0 °F 91.8 °F 71.6 °F 62% 29.89 in - East 16.1 mph - N/A   Unknown
3:00 PM 86.0 °F 93.4 °F 73.4 °F 66% 29.86 in - East 15.0 mph - N/A   Unknown
5:00 PM 82.4 °F 88.2 °F 73.4 °F 74% 29.86 in - East 13.8 mph - N/A   Unknown
6:00 PM 82.4 °F 88.2 °F 73.4 °F 74% 29.86 in - East 12.7 mph - N/A   Unknown
7:00 PM 80.6 °F 85.4 °F 73.4 °F 79% 29.89 in - East 10.4 mph - N/A   Unknown
8:00 PM 80.6 °F 85.4 °F 73.4 °F 79% 29.89 in - East 10.4 mph - N/A   Unknown
9:00 PM 80.6 °F 85.4 °F 73.4 °F 79% 29.92 in - East 10.4 mph - N/A   Unknown
10:00 PM 80.6 °F 85.4 °F 73.4 °F 79% 29.92 in - East 8.1 mph - N/A   Unknown
11:00 PM 80 °F - 73 °F 74%  in - East 8.1 mph - -   Clear
11:00 PM 80.6 °F 85.4 °F 73.4 °F 79% 29.92 in - East 9.2 mph - N/A   Unknown